Regional Weather Roundup
Issued by NWS

Home | Current Version | Previous Version | Text Only | Print | Product List | Glossary Off
Versions: 1 2 3 4 5 6 7 8 9 10 11 12 13 14 15 16 17 18 19 20 21 22 23 24 25 26 27 28 29 30 31 32 33 34 35 36 37 38 39 40 41 42 43 44 45 46 47 48 49 50

000
ASUS43 KMKX 040521
RWRWI

WISCONSIN REGIONAL WEATHER ROUNDUP
NATIONAL WEATHER SERVICE MILWAUKEE/SULLIVAN WI
1200 AM CDT FRI SEP 04 2015

NOTE: "FAIR" INDICATES FEW OR NO CLOUDS BELOW 12,000 FEET WITH NO
SIGNIFICANT WEATHER AND/OR OBSTRUCTIONS TO VISIBILITY.

WIZ001-002-006>008-014>016-023>028-040600-
NORTHWEST WISCONSIN

CITY           SKY/WX    TMP DP  RH WIND       PRES   REMARKS
SUPERIOR ARPT  CLEAR     58  55  92 E6        29.99S
ASHLAND        FOG       52  52 100 CALM      30.01R VSB 1/2
HAYWARD        CLEAR     64  62  93 NE5       30.00R
SIREN          CLEAR     68  66  93 E3        29.96S
CUMBERLAND     CLEAR     66  63  88 SE8       29.98S
RICE LAKE      CLEAR     66  63  89 SE3       29.99S
CHETEK         CLEAR     67  65  94 SE5       29.98S
LADYSMITH      CLEAR     66  64  95 CALM      30.02S
EAU CLAIRE     CLOUDY    71  65  81 E6        29.96R
MENOMONIE      CLEAR     69  66  89 E3        29.96S
NEW RICHMOND   CLEAR     70  65  84 SE7       29.94S
OSCEOLA        PTCLDY    71  67  87 SE7       29.96S
$$

WIZ003>005-009-010-017-018-040600-
NORTH CENTRAL WISCONSIN

CITY           SKY/WX    TMP DP  RH WIND       PRES   REMARKS
MANITOWISH WTR FOG       58  58 100 CALM      30.04R VSB 1/2
ARBOR VITAE    CLEAR     62  61  96 CALM      30.04R
WOODRUFF       CLEAR     62  61  96 CALM      30.04R
RHINELANDER    CLEAR     63  62  97 CALM      30.05R
EAGLE RIVER    CLEAR     62  62 100 CALM      30.04S
LAND O LAKES   CLEAR     60  60  99 CALM      30.06S
PHILLIPS       CLEAR     61  61 100 CALM      30.02R
TOMAHAWK       PTCLDY    57  56  97 CALM      30.04R FOG
MEDFORD        FOG       60  60 100 CALM      30.02S VSB 1/4
MERRILL        CLEAR     59  59 100 CALM      30.04R FOG
$$

WIZ029-030-035-036-043>047-040600-
CENTRAL WISCONSIN

CITY           SKY/WX    TMP DP  RH WIND       PRES   REMARKS
WAUSAU         CLEAR     63  62  97 CALM      30.00R
MOSINEE        CLEAR     64  63  94 NE5       30.02R
MARSHFIELD     CLEAR     65  61  87 E3        30.00S
STEVENS POINT  CLEAR     59  59  99 CALM      30.01R
WAUPACA        FOG       64  63  97 CALM      30.00R VSB 1
WAUTOMA        CLEAR     61  61 100 CALM      29.99R
WISC RAPIDS    CLEAR     64  62  93 SW3       30.00S
CAMP DOUGLAS   CLEAR     66  66 100 E1        29.97S
$$

WIZ011>013-019>022-031-037>040-048>050-040600-
NORTHEAST WISCONSIN

CITY           SKY/WX    TMP DP  RH WIND       PRES   REMARKS
ANTIGO         CLEAR     63  61  94 E3        30.04R
SHAWANO        NOT AVBL
OCONTO         CLEAR     62  62 100 CALM      29.98S
STURGEON BAY   PTCLDY    64  63  94 N5        30.00R
GREEN BAY      CLEAR     63  61  93 CALM      29.98R
MANITOWOC      CLEAR     64  63  96 MISG      29.96S FOG
APPLETON       CLEAR     63  63 100 N5        29.97S
CLINTONVILLE   FOG       63  63 100 CALM      30.00R VSB 1/2
OSHKOSH        CLEAR     63  61  93 W3        29.97S
$$

WIZ032>034-041-042-053>061-040600-
SOUTHWEST WISCONSIN

CITY           SKY/WX    TMP DP  RH WIND       PRES   REMARKS
LA CROSSE      CLEAR     74  68  81 SE6       29.94R
SPARTA         CLEAR     69  63  82 CALM      29.97S
VIROQUA          N/A     69  69 100 E8        29.97S
BOSCOBEL       FAIR      75  68  78 VRB3      29.95R
PRAIRIE DU CHI CLEAR     77  73  86 E3        29.92S
PLATTEVILLE    CLEAR     73  71  93 E9        29.95S
$$

WIZ056-057-062-063-064-067-068-040600-
SOUTH CENTRAL WISCONSIN

CITY           SKY/WX    TMP DP  RH WIND       PRES   REMARKS
REEDSBURG      PTCLDY    68  67  94 CALM      29.97S
BARABOO/DELLS  CLOUDY    69  66  89 CALM      29.98S
LONE ROCK      CLEAR     70  67  90 E6        29.97R
MINERAL POINT  CLEAR     72  68  88 E6        29.97S
MADISON        CLOUDY    71  66  84 NE5       29.97S
MIDDLETON      CLOUDY    71  68  89 NE3       29.98S
WATERTOWN      CLOUDY    71  71  99 CALM      29.97S
MONROE         PTCLDY    70  68  94 NE7       29.97R
JANESVILLE     MOCLDY    72  70  94 E3        29.96R
$$

WIZ051-052-058>065-066-070>072-040600-
SOUTHEAST WISCONSIN

CITY           SKY/WX    TMP DP  RH WIND       PRES   REMARKS
MILWAUKEE      MOCLDY    67  63  87 N3        29.97R
WAUKESHA       MOCLDY    66  63  88 E3        29.99R
MILWAUKEE/TIMM MOCLDY    64  61  88 CALM      29.98S
RACINE         CLOUDY    66  62  87 N3        29.99S
BURLINGTON     CLOUDY    67  64  89 E5        29.97S
KENOSHA        MOCLDY    67  64  90 NE3       29.98R
FOND DU LAC    CLEAR     64  63  96 CALM      29.97S
SHEBOYGAN      CLEAR     62  61  96 CALM      29.96S FOG
WEST BEND      FOG       63  61  94 CALM      29.97S VSB 3/4
JUNEAU         CLOUDY    65  65  97 CALM      29.99R
$$

LSZ147-162-040600-
LAKE SUPERIOR

STATION/POSITION TIME  TEMP    WIND        PRES    WAVE
                       AIR SEA DIR/SP/G            HT/PER
                 (UTC) (F)     (DEG/KT/KT) (MB)    (FT/S)
W MID LAKE BUOY  0450   60 57   80/  8/ 10 1015.8S   1
DEVILS ISLAND    0500   59      80/  5/  6 1016.0R
PORT WING        0400   56      40/  9/ 10 1015.6
SAXON HARBOR     0400   59        CALM     1014.9S
$$

LMZ867-665-643>646-040600-
LAKE MICHIGAN

STATION/POSITION TIME  TEMP    WIND        PRES    WAVE
                       AIR SEA DIR/SP/G            HT/PER
                 (UTC) (F)     (DEG/KT/KT) (MB)    (FT/S)
CHAMBERS ISLAND  0400   65      10/  7/  8 1014.9S
S GREEN BAY BUOY 0500   67 66   20/ 10/ 14 1016.4R
N MID LAKE BUOY  0450   68 66   60/ 10/ 12 1014.5R   1/ 4
NORTHPORT PIER   0400   68      40/  7/ 10 1014.9S
SISTER BAY       0441   68      20/  5/  9   N/A
ALGOMA LAKESHORE 0329          330/  5/  6   N/A
KEWAUNEE LAKESHO 0500   67      10/  8/ 12 1013.7R
SHEBOYGAN LAKESH 0500   66     330/  6/  6 1014.5R
PORT WASHINGTON  0440   66     310/  3/  5 1015.2R
ATWATER BUOY     0500   63     300/  4/  6 1016.2S
MILWAUKEE LAKESH 0410   67     350/  4/  5   N/A
S MID LAKE BUOY  0450   69 71  330/  8/ 10 1013.8R   1/ 3
KENOSHA   LAKESH 0500   65      10/  5/  7 1014.6S
$$

TC  - TEMPERATURE IN CELSIUS
VSB - VISIBILITY IN STATUTE MILES
WCI - WIND CHILL INDEX
HX  - HEAT INDEX



USA.gov is the U.S. government's official web portal to all federal, state and local government web resources and services.